Wautoma, WI

6:36 AM CDT on August 24, 2016 (GMT -0500)
Wautoma

Weather History for KY50 - November, 2012

Change the Weather History Date:

Friday, November 2, 2012

  Actual Average (KPCZ) Record (KPCZ)
Temperature  
Mean Temperature 36 °F -  
Max Temperature 45 °F 50 °F 72 °F (1990)
Min Temperature 26 °F 34 °F 5 °F (1951)
Degree Days  
Heating Degree Days 30    
Moisture  
Dew Point 24 °F    
Average Humidity 73    
Maximum Humidity 96    
Minimum Humidity 42    
Precipitation  
Precipitation 0.00 in - - ()
Sea Level Pressure  
Sea Level Pressure 30.11 in    
Wind  
Wind Speed 1 mph (North)    
Max Wind Speed 8 mph    
Max Gust Speed -    
Visibility 10 miles    
Events      
Averages and records for this station are not official NWS values.
T = Trace of Precipitation, MM = Missing Value Source: NWS Daily Summary

Daily Weather History Graph

Daily Weather History Graph

Search for Another Location

Airport or City:

Trip Planner

Search our weather history database for the weather conditions in past years. The results will help you decide how hot, cold, wet, or windy it might be!

Date:

Astronomy

Nov. 02, 2012 Rise Set
Actual Time 7:35 AM CDT 5:45 PM CDT
Civil Twilight 7:05 AM CDT 6:15 PM CDT
Nautical Twilight 6:31 AM CDT 6:49 PM CDT
Astronomical Twilight 5:57 AM CDT 7:23 PM CDT
Moon 8:28 PM CDT (11/2) 11:00 AM CDT (11/2)
Length of Visible Light 11h 09m
Length of Day
10h 09m
Waning Gibbous, 87% of the Moon is Illuminated
Nov 2
Waning Gibbous
Nov 6
Last Quarter
Nov 13
New
Nov 20
First Quarter
Nov 28
Full

Hourly Weather History & Observations

Time (CDT) Temp. Windchill Dew Point Humidity Pressure Visibility Wind Dir Wind Speed Gust Speed Precip Events Conditions
12:56 AM 30.0 °F - 27.1 °F 89% 30.00 in 10.0 mi Calm Calm - N/A   Clear
1:56 AM 28.0 °F - 26.1 °F 92% 30.01 in 10.0 mi Calm Calm - N/A   Clear
2:56 AM 28.0 °F - 27.1 °F 96% 30.03 in 10.0 mi Calm Calm - N/A   Clear
3:56 AM 28.0 °F - 26.1 °F 92% 30.04 in 10.0 mi Calm Calm - N/A   Clear
4:56 AM 28.0 °F - 26.1 °F 92% 30.04 in 10.0 mi Calm Calm - N/A   Clear
5:56 AM 26.1 °F - 24.1 °F 92% 30.06 in 10.0 mi Calm Calm - N/A   Clear
6:56 AM 26.1 °F - 24.1 °F 92% 30.08 in 10.0 mi Calm Calm - N/A   Clear
7:56 AM 26.1 °F - 24.1 °F 92% 30.09 in 10.0 mi Calm Calm - N/A   Clear
8:56 AM 30.0 °F - 25.2 °F 82% 30.11 in 10.0 mi Calm Calm - N/A   Clear
9:56 AM 34.9 °F 30.8 °F 25.2 °F 68% 30.12 in 10.0 mi North 4.6 mph - N/A   Clear
10:56 AM 36.9 °F 30.7 °F 23.0 °F 57% 30.12 in 10.0 mi North 8.1 mph - N/A   Clear
11:56 AM 38.8 °F - 23.0 °F 53% 30.13 in 10.0 mi Calm Calm - N/A   Clear
12:56 PM 39.9 °F - 23.0 °F 51% 30.13 in 10.0 mi Calm Calm - N/A   Clear
1:56 PM 43.0 °F 40.3 °F 22.1 °F 44% 30.12 in 10.0 mi NNE 4.6 mph - N/A   Clear
2:56 PM 45.0 °F - 23.0 °F 42% 30.11 in 10.0 mi Calm Calm - N/A   Clear
3:56 PM 43.9 °F - 23.0 °F 44% 30.11 in 10.0 mi Calm Calm - N/A   Clear
4:56 PM 43.0 °F - 23.0 °F 45% 30.12 in 10.0 mi Calm Calm - N/A   Clear
5:56 PM 39.9 °F - 23.0 °F 51% 30.14 in 10.0 mi Calm Calm - N/A   Clear
6:56 PM 32.9 °F - 25.2 °F 73% 30.14 in 10.0 mi Calm Calm - N/A   Clear
7:56 PM 32.9 °F - 24.1 °F 70% 30.15 in 10.0 mi Calm Calm - N/A   Clear
8:56 PM 28.0 °F - 24.1 °F 85% 30.16 in 10.0 mi Calm Calm - N/A   Clear
9:56 PM 27.1 °F - 23.0 °F 84% 30.18 in 10.0 mi Calm Calm - N/A   Clear
10:56 PM 32.9 °F - 26.1 °F 76% 30.21 in 10.0 mi Calm Calm - N/A   Clear
11:56 PM 29.1 °F - 24.1 °F 81% 30.22 in 10.0 mi Calm Calm - N/A   Clear